CW2548 Weather Reports


time (UTC)temp
C
wind
direction
speed
KPH
gust
KPH
rain 1hr
cm
rain 24hr
cm
rain mn
cm
humidity
%
barometer
mb
20260503211516 34 248 6.4 19.3 0.00 0.00 0.00 18 1011.7
20260503210016 34 203 9.7 22.5 0.00 0.00 0.00 17 1011.9
20260503204537 35 203 11.3 25.7 0.00 0.00 0.00 16 1011.4
20260503203015 34 180 16.1 30.6 0.00 0.00 0.00 15 1011.5
20260503201516 34 158 12.9 40.2 0.00 0.00 0.00 16 1011.4
20260503200015 34 158 11.3 30.6 0.00 0.00 0.00 15 1011.9
20260503194517 33 203 6.4 19.3 0.00 0.00 0.00 19 1011.9
20260503193015 33 225 8.0 22.5 0.00 0.00 0.00 20 1012.0
20260503191515 33 135 8.0 20.9 0.00 0.00 0.00 21 1012.4
20260503190036 33 158 6.4 16.1 0.00 0.00 0.00 21 1012.6
20260503184517 33 90 3.2 9.7 0.00 0.00 0.00 22 1012.8
20260503183015 32 90 4.8 24.1 0.00 0.00 0.00 23 1013.2
20260503181557 32 225 3.2 9.7 0.00 0.00 0.00 23 1013.2
20260503180035 32 225 4.8 12.9 0.00 0.00 0.00 23 1013.6
20260503174515 31 113 3.2 11.3 0.00 0.00 0.00 23 1013.5
20260503173015 31 203 4.8 14.5 0.00 0.00 0.00 26 1013.5
20260503171536 30 113 8.0 24.1 0.00 0.00 0.00 26 1013.6
20260503081515 25 135 4.8 11.3 0.00 0.00 0.00 35 1012.3
20260503071516 25 135 1.6 4.8 0.00 0.00 0.00 33 1012.5
20260503054515 26 0.0 3.2 0.00 0.00 0.00 33 1011.8
20260503053016 27 293 1.6 6.4 0.00 0.00 0.00 32 1011.6
20260503051516 27 0 4.8 8.0 0.00 0.00 0.00 32 1011.5
20260503050036 28 248 3.2 11.3 0.00 0.00 0.00 30 1011.1
20260503044516 28 248 6.4 14.5 0.00 0.00 0.00 29 1011.1
20260503043056 29 248 8.0 16.1 0.00 0.00 0.00 29 1010.9
20260503041516 29 248 4.8 11.3 0.00 0.00 0.00 29 1010.7
20260503040015 29 248 4.8 14.5 0.00 0.00 0.00 28 1010.3
20260503034515 30 248 8.0 17.7 0.00 0.00 0.00 28 1010.1
20260503033016 30 248 9.7 17.7 0.00 0.00 0.00 28 1009.8
20260503031515 30 248 9.7 19.3 0.00 0.00 0.00 27 1009.7
20260503030015 30 248 11.3 20.9 0.00 0.00 0.00 27 1009.4
20260503024516 31 248 11.3 22.5 0.00 0.00 0.00 27 1009.5
20260503023036 31 248 12.9 22.5 0.00 0.00 0.00 26 1009.4
20260503021516 31 248 12.9 25.7 0.00 0.00 0.00 26 1009.2
20260503020015 31 248 14.5 25.7 0.00 0.00 0.00 26 1008.9
20260503014516 32 248 11.3 27.4 0.00 0.00 0.00 25 1008.7
20260503013035 32 248 11.3 25.7 0.00 0.00 0.00 25 1008.6
20260503011515 33 248 12.9 27.4 0.00 0.00 0.00 24 1008.6
20260503010016 33 248 12.9 25.7 0.00 0.00 0.00 25 1008.5
20260503004536 34 248 12.9 27.4 0.00 0.00 0.00 25 1008.6
20260503003015 34 248 12.9 25.7 0.00 0.00 0.00 25 1008.3
20260503001516 35 293 11.3 27.4 0.00 0.00 0.00 25 1008.4
20260503000015 35 248 11.3 25.7 0.00 0.00 0.00 25 1008.4
20260502234516 35 293 12.9 27.4 0.00 0.00 0.00 25 1008.3
20260502233015 35 293 11.3 27.4 0.00 0.00 0.00 24 1008.1
20260502231517 36 293 8.0 22.5 0.00 0.00 0.00 22 1008.1
20260502230015 36 225 4.8 14.5 0.00 0.00 0.00 21 1008.1
20260502224516 36 293 11.3 27.4 0.00 0.00 0.00 21 1008.4
20260502223015 36 203 8.0 14.5 0.00 0.00 0.00 21 1008.5
20260502221517 36 293 8.0 22.5 0.00 0.00 0.00 21 1008.5
20260502220016 36 293 4.8 12.9 0.00 0.00 0.00 20 1008.3
20260502214516 36 248 6.4 17.7 0.00 0.00 0.00 20 1008.8
20260502213015 36 293 8.0 17.7 0.00 0.00 0.00 20 1008.9